SL-24 R/B, 40303

Orbit data source: Space-Track

SL-24 R/B, 40303 is space debris in SSO originally from a launch on Thu, 06 Nov 2014 UTC launched from the Orenburg, Russia (OREN). Debris objects in space refer to the collection of defunct objects orbiting the Earth. Examples of debris include non-operational satellites, rocket bodies, and fragments generated from explosions, collisions, or faulty payload assembly.

Loading next visibility...
Identifier
40303, 2014-070F
Orbit
SSO
Country
Flag of CISCIS
Related business
Manufacturer
Yuzhnoe
Mission
Spacecraft
Bus & Motor
15A18-BR, Unknown motor
Mass
~1,000 kg wet, ~1,000 kg dry
Launch date (UTC)
2014-11-06 (11 years ago)
Launch vehicle
Unknown
Launch site
Orenburg, Russia (OREN)
Object type
Payload
Rocket body
Debris
Shape & HBR
Cyl, 1.5 m
Radar Cross Section
10.603 m², Large (>1 m²)

Expand to show TLE details & history
Last TLE update: 18 hours ago

TLE from 18 hours ago
0 SL-24 R/B
1 40303U 14070F   25295.19529133  .00000778  00000-0  18149-3 0  9996
2 40303  97.1524 260.4083 0949736  73.0647 297.2288 13.15026103525347
Epoch: 2025-10-22T04:41Z
TLE epoch observation values (Epoch: 2025-10-22T04:41:13.170Z)
Latitude
-0.00005°
Longitude
159.23105°
Altitude
934.595 km
Speed
7.516 km/s
True Right ascension
17h 21m 37s
True Declination
0° 00' 00"
Sunlit
Object was in daylight at epoch
Visualization orbit readout
Latitude
Unknown
Longitude
Unknown
Altitude
Unknown
Speed
Unknown
Apparent Right ascension
Unknown
Apparent Declination
Unknown
Sunlit
N/A
Visualization observer readout
Local Sidereal Time
17:54:18
Azimuth
Unknown
Elevation
Unknown
Doppler factor
Unknown
Orbital elements
Apogee altitude
1,920.792 km
Perigee altitude
481.161 km
Semi-major axis
7,579.113 km
Eccentricity
0.09497
Inclination
97.1524°
RAAN
260.4083°
Arg. of periapsis
73.0647°
True anomaly
287.05129°
Mean anomaly
297.2288°
Eccentric anomaly
292.19025°
Mean motion
3.28939 °/min
Orbital period
109.44 mins
BSTAR
0.00018149
Loading maneuver chart data...
Computing Atmospheric mass density...
Loading historical data...
Loading historical data...
Loading historical data...
Loading historical data...
Loading historical data...
Loading historical data...
Loading historical data...

Documentation

Showing up to 5 results
|